Regional Weather Roundup
Issued by NWS

Home | Current Version | Previous Version | Graphics & Text | Print | Product List | Glossary On
Versions: 1 2 3 4 5 6 7 8 9 10 11 12 13 14 15 16 17 18 19 20 21 22 23 24 25 26 27 28 29 30 31 32 33 34 35 36 37 38 39 40 41 42 43 44 45 46 47 48 49 50
000
ASUS43 KLOT 190000
RWRIL

ILLINOIS REGIONAL WEATHER ROUNDUP
NATIONAL WEATHER SERVICE CHICAGO/ROMEOVILLE IL
700 PM CDT SAT APR 18 2015

NOTE: "FAIR" INDICATES FEW OR NO CLOUDS BELOW 12,000 FEET WITH NO
SIGNIFICANT WEATHER AND/OR OBSTRUCTIONS TO VISIBILITY.

* THESE STATIONS ARE NOT UNDER NWS QUALITY CONTROL. THEY ALSO MAY NOT
  REPORT WEATHER SUCH AS PRECIPITATION OR FOG.

ILZ001-002-007-009-015-016-024-190100-
NORTHWEST ILLINOIS

CITY           SKY/WX    TMP DP  RH WIND       PRES   REMARKS
MOLINE         MOCLDY    73  51  46 E16       29.88F
6HR MIN TEMP:  71; 6HR MAX TEMP:  81; 6HR PCP:  0.01;

$$

ILZ003-004-008-010-011-017-018-190100-
NORTH CENTRAL ILLINOIS

CITY           SKY/WX    TMP DP  RH WIND       PRES   REMARKS
ROCKFORD       NOT AVBL
$$

ILZ005-006-012>014-019>023-190100-
NORTHEAST ILLINOIS

CITY           SKY/WX    TMP DP  RH WIND       PRES   REMARKS
CHICAGO-OHARE  MOCLDY    52  33  48 NE12      30.01F
6HR MIN TEMP:  52; 6HR MAX TEMP:  58;

CHICAGO-MIDWAY MOCLDY    53  34  48 NE13      30.01F
6HR MIN TEMP:  53; 6HR MAX TEMP:  63;

AURORA         PTCLDY    61  36  39 NE14      29.98F
6HR MIN TEMP:  61; 6HR MAX TEMP:  72;

WAUKEGAN       NOT AVBL
DUPAGE AIRPORT PTCLDY    57  35  43 NE12      29.99F
6HR MIN TEMP:  57; 6HR MAX TEMP:  66;

WHEELING       MOCLDY    50  32  50 NE10      30.03F
6HR MIN TEMP:  50; 6HR MAX TEMP:  57;

NORTHERLY ISL    N/A     44  36  73 N15         N/A
$$

LMZ740>746-190100-
SOUTHERN LAKE MICHIGAN

STATION/POSITION SKY/WX   TEMP    WIND        PRES    VSBY  WAVE
                          AIR SEA DIR/SP/G                  HT/PER
                          (F)     (DEG/KT/KT) (MB)    (MI)  (FT/S)
HARRISON CRIB              41     340/ 16/ 18   N/A
BURNHAM HARBOR             45     360/ 10/ 18   N/A
CALUMET HARBOR             44     350/ 12/ 17   N/A
BURNS HARBOR               42     330/  5/  6 1017.6F
MICHIGAN CITY              44     320/  4/  6   N/A
MICHIGAN CITY 6N           42 47  320/  4/  6   N/A           3/ 5
$$

ILZ025>027-034>036-040-047-049-050-058-095>099-190100-
WEST-CENTRAL ILLINOIS

CITY           SKY/WX    TMP DP  RH WIND       PRES   REMARKS
$$

ILZ028>032-037-038-041>044-048-051>054-059>061-190100-
CENTRAL ILLINOIS

CITY           SKY/WX    TMP DP  RH WIND       PRES   REMARKS
PEORIA         NOT AVBL
SPRINGFIELD    CLEAR     75  52  44 SE10      29.91R
6HR MIN TEMP:  75; 6HR MAX TEMP:  82;

TAYLORVILLE    NOT AVBL
$$

ILZ033-039-045-046-055>057-062-063-190100-
EAST-CENTRAL ILLINOIS

CITY           SKY/WX    TMP DP  RH WIND       PRES   REMARKS
CHAMPAIGN      PTCLDY    73  46  38 SE9       29.93S
$$

ILZ079-100>102-190100-
SOUTHWEST ILLINOIS

CITY           SKY/WX    TMP DP  RH WIND       PRES   REMARKS
CAHOKIA*       CLOUDY    74  58  57 SE7       29.86S
$$

ILZ064>066-069>071-074>076-080>082-084>086-088>090-092>094-190100-
SOUTH-CENTRAL ILLINOIS

CITY           SKY/WX    TMP DP  RH WIND       PRES   REMARKS
CARBONDALE     MOCLDY    76  58  53 E5        29.86F
6HR MIN TEMP:  75; 6HR MAX TEMP:  79;

$$

ILZ067-068-072-073-078-083-087-091-190100-
SOUTHEAST ILLINOIS

CITY           SKY/WX    TMP DP  RH WIND       PRES   REMARKS
$$

ABBREVIATIONS USED IN REMARKS
   TC - TEMPERATURE IN CELSIUS
  WCI - WIND CHILL INDEX
   HX - HEAT INDEX
  VSB - VISIBILITY
$$




USA.gov is the U.S. government's official web portal to all federal, state and local government web resources and services.